Regional Weather Roundup
Issued by NWS

Home | Current Version | Previous Version | Graphics & Text | Print | Product List | Glossary On
Versions: 1 2 3 4 5 6 7 8 9 10 11 12 13 14 15 16 17 18 19 20 21 22 23 24 25 26 27 28 29 30 31 32 33 34 35 36 37 38 39 40 41 42 43 44 45 46 47 48 49 50
718
ASUS44 KLIX 170401
RWRLA
LOUISIANA WEATHER ROUNDUP
NATIONAL WEATHER SERVICE NEW ORLEANS LA
1100 PM CDT TUE SEP 16 2014

NOTE: "FAIR" INDICATES FEW OR NO CLOUDS BELOW 12,000 FEET WITH NO
      SIGNIFICANT WEATHER AND/OR OBSTRUCTIONS TO VISIBILITY.
      SKY/WX - SKY CONDITION AND SIGNIFICANT WEATHER.
      TMP - AIR TEMPERATURE.    DP   - DEWPOINT TEMPERATURE.
      RH  - RELATIVE HUMIDITY.  PRES - PRESSURE.
      HX  - HEAT INDEX.         WCI  - WIND CHILL INDEX.

*  THESE STATIONS ARE NOT NWS OR FAA STATIONS AND ARE NOT UNDER
   NWS QUALITY CONTROL.

LAZ040-048-061>063-065-066-069-170500-
SOUTHEAST LOUISIANA

CITY           SKY/WX    TMP DP  RH WIND       PRES   REMARKS
N.O. AUDUBON   NOT AVBL
N.O. INTL ARPT CLOUDY    77  73  87 N8        30.02F
N.O. LAKEFRONT CLOUDY    79  75  87 N15       30.03S
N.O. DOWNTOWN* MOCLDY    79  72  78 N3        30.03S
SLIDELL        CLOUDY    75  72  90 N3        30.03S
BATON ROUGE    CLOUDY    74  72  93 NE3       30.03S
BOOTHVILLE     CLOUDY    78  76  93 W5        30.02F
BELLE CHASSE   CLOUDY    77  73  87 CALM      30.02S
BOGALUSA*      CLOUDY    76  71  87 CALM      30.06S
GALLIANO*      NOT AVBL
NEW ROADS*     CLOUDY    74  73  98 CALM      30.03F
GONZALES*      FAIR      72  72 100 CALM      30.03R
HAMMOND*       NOT AVBL
HOUMA*         CLOUDY    76  73  88 NE6       30.02S
PORT FOURCHON* NOT AVBL

$$

LAZ041-044-053-054-170500-
SOUTHWEST LOUISIANA

CITY           SKY/WX    TMP DP  RH WIND       PRES   REMARKS
LAKE CHARLES   CLOUDY    76  75  97 CALM      30.02F
LAFAYETTE      CLOUDY    74  74 100 NW6       30.02S
PATTERSON      CLOUDY    72  72 100 CALM      30.04S
SALT POINT       N/A     75  72  90 CALM      30.01S
NEW IBERIA     CLOUDY    74  73  97 CALM      30.02R
CHENAULT AIRPK CLOUDY    76  74  92 CALM      30.03F

$$

LAZ027-028-170500-
CENTRAL LOUISIANA

CITY           SKY/WX    TMP DP  RH WIND       PRES   REMARKS
FORT POLK      CLOUDY    73  72  96 CALM      30.05S
ALEXANDRIA INT MOCLDY    74  72  93 SW3       30.02F
ALEXANDRIA     MOCLDY    74  71  91 W7        30.04F

$$

LAZ001-002-170500-
NORTHWEST LOUISIANA

CITY           SKY/WX    TMP DP  RH WIND       PRES   REMARKS
SHREVEPORT     PTCLDY    78  71  79 CALM      30.02S
BARKSDALE AFB  PTCLDY    76  70  81 SE2       30.03R
DTN SHREVEPORT CLEAR     76  70  82 SE3       30.02S

$$

LAZ014-016-170500-
NORTHEAST LOUISIANA

CITY           SKY/WX    TMP DP  RH WIND       PRES   REMARKS
MONROE         MOCLDY    73  70  90 CALM      30.04R
TALLULAH       PTCLDY    72  69  90 CALM      30.02R

$$




USA.gov is the U.S. government's official web portal to all federal, state and local government web resources and services.